Theta_e
316 317 317 318 318 319 318 318 317 317 318 316 317 317 317 317 317 317 316 316 315 315 315 309 307 305 302 299 298 297 295 295 294 294 294 293 293 293 292 291 290 289 288 288
316 316 317 316 316 317 317 318 317 318 318 314 316 316 316 317 317 316 315 315 315 315 313 309 306 303 300 298 297 296 295 295 294 294 293 293 293 292 292 291 290 289 288 288
317 316 314 316 317 317 316 317 318 318 319 314 314 316 316 316 314 314 313 313 313 314 314 309 306 302 300 297 297 296 295 294 294 293 292 291 290 289 289 290 289 289 288 287
316 316 316 315 315 315 317 317 318 318 318 319 314 318 317 316 316 314 313 313 314 312 312 309 305 302 299 298 297 295 295 294 293 292 291 290 290 291 291 291 290 288 287 286
314 316 314 315 315 316 317 312 315 316 317 319 317 318 317 311 313 313 313 315 316 314 311 308 305 301 299 297 296 295 294 293 293 291 290 290 290 290 291 289 288 287 287 286
313 310 313 315 310 312 310 312 312 312 315 319 317 318 317 316 313 313 314 314 315 312 310 307 304 301 299 297 296 295 294 293 292 291 290 290 290 290 289 288 287 287 286 285
316 314 312 310 313 310 311 316 318 323 323 322 317 316 317 316 313 313 313 314 314 311 310 307 304 301 299 297 295 295 294 293 291 290 289 289 289 289 288 288 287 286 286 285
316 317 314 310 314 317 313 316 321 326 320 320 313 317 315 315 314 312 312 311 311 310 309 307 305 301 299 297 295 294 294 293 291 290 289 288 288 287 287 286 285 284 284 283
314 315 309 310 310 314 314 314 315 321 321 321 316 317 317 315 313 312 311 310 310 309 308 307 304 301 299 297 295 294 294 293 291 289 289 288 286 286 285 284 283 283 282 281
314 315 314 305 305 307 310 311 315 316 324 321 317 318 317 315 313 312 311 311 312 310 308 307 305 301 299 297 295 294 294 292 291 289 288 287 285 284 283 283 282 281 281 280
313 315 313 307 309 312 309 311 310 310 317 319 318 316 312 314 313 313 313 312 313 312 310 307 304 301 299 297 295 294 294 292 291 288 287 285 284 283 282 281 280 280 279 279
312 315 316 314 312 309 311 312 313 315 315 314 315 316 313 313 312 311 311 312 312 312 311 309 306 302 299 297 296 295 293 292 291 288 286 284 283 281 280 280 279 279 278 278
311 314 317 315 311 306 309 311 311 313 313 315 318 316 313 313 313 312 311 311 311 309 309 310 307 303 301 298 296 295 293 292 290 287 285 283 281 280 279 279 279 278 277 276
311 317 315 315 315 313 312 311 311 311 314 314 314 314 313 313 313 313 312 312 312 310 310 310 308 305 302 299 296 294 293 291 288 285 283 281 280 279 279 278 277 277 276 275
311 314 314 314 314 314 312 313 313 311 311 312 312 312 312 312 312 313 313 312 310 310 310 308 307 307 302 298 296 294 292 290 286 283 282 280 279 279 278 277 276 275 274 274
311 315 314 315 314 313 313 312 313 313 313 313 313 313 312 311 311 311 311 311 310 310 309 308 307 304 301 297 295 292 291 288 284 281 280 280 278 277 277 276 275 274 273 273
310 313 315 316 315 315 316 315 314 313 313 314 315 314 314 314 313 313 313 312 311 310 309 306 305 304 299 296 293 291 289 285 282 280 280 278 277 276 275 275 274 273 272 272
314 312 314 318 317 318 315 313 313 314 314 315 314 313 313 314 313 312 312 312 310 309 307 306 305 304 298 295 291 289 286 282 280 280 278 276 276 275 274 273 272 272 272 271
313 315 317 317 318 316 315 315 314 315 316 314 313 313 313 312 311 311 311 310 309 309 308 307 307 305 297 292 289 285 282 279 279 279 276 275 274 273 272 272 271 271 271 271
312 313 315 317 318 320 315 313 313 313 315 313 312 312 311 311 312 311 310 307 305 304 304 304 299 295 292 289 286 282 279 279 279 277 275 274 273 273 271 271 271 270 270 270
314 313 315 316 317 316 314 312 310 315 316 313 311 310 310 310 310 310 308 305 305 303 297 294 292 290 289 285 282 280 279 279 278 276 274 273 272 272 271 270 270 269 269 269
315 317 315 314 316 317 312 312 314 313 312 312 312 311 310 309 309 307 307 306 301 298 290 289 287 286 283 281 280 280 279 278 275 273 272 271 270 270 270 270 269 268 268 268
316 310 310 313 315 313 310 310 307 309 311 311 310 307 308 308 308 306 305 304 297 295 289 286 285 282 279 279 280 279 278 274 272 271 270 269 269 269 268 268 267 267 268 270
302 304 306 305 306 305 305 305 306 307 304 302 303 304 305 307 307 305 304 302 296 290 288 284 282 280 279 279 280 278 273 272 271 269 268 267 267 267 267 267 267 269 269 270
297 296 297 297 296 298 299 299 300 300 300 300 300 301 301 302 302 304 304 304 302 293 286 283 281 280 279 278 278 273 271 271 270 269 268 267 267 267 267 268 268 269 269 270
293 293 294 294 296 296 296 296 293 293 294 295 294 294 295 297 300 301 303 304 304 295 286 283 281 280 278 277 274 271 270 270 270 269 268 268 267 268 267 267 266 267 268 268
Wind_Speed
6 8 17 18 18 22 22 21 23 24 8 9 19 23 22 22 21 23 23 22 21 19 12 20 26 28 28 28 29 28 26 24 21 18 15 12 12 11 11 9 9 7 4 6
6 16 22 18 10 15 20 20 25 21 7 5 16 22 21 22 25 24 22 22 17 14 12 15 23 26 28 29 29 29 27 24 23 19 17 12 14 12 11 10 9 7 8 10
22 22 2 5 14 15 18 21 22 21 13 13 14 19 17 14 15 17 20 18 14 14 14 16 20 28 28 30 31 31 29 27 25 20 17 13 11 10 10 10 9 9 10 11
19 20 20 16 20 18 19 12 18 19 11 14 1 17 15 15 18 13 19 18 14 11 10 14 18 25 30 30 30 30 30 29 27 24 21 21 18 14 14 11 9 10 9 11
12 8 9 15 15 11 8 2 5 8 12 17 16 15 14 6 9 13 18 19 12 10 12 17 18 25 29 30 32 32 31 29 27 27 25 24 19 15 11 9 9 11 11 12
20 2 5 6 2 2 7 2 3 4 5 12 20 18 8 7 6 8 13 13 7 8 12 14 19 23 25 28 30 32 32 31 30 29 28 24 20 17 15 14 12 11 10 9
13 23 5 4 6 4 9 6 6 9 6 16 13 12 19 11 13 15 21 15 5 10 13 15 17 17 23 30 33 32 34 34 33 31 29 27 23 20 18 15 14 11 9 10
9 11 18 15 18 10 14 10 6 11 15 24 5 13 12 13 12 12 11 3 6 11 12 14 16 17 23 27 31 33 34 34 33 30 28 26 24 22 20 17 13 12 12 12
10 14 5 12 4 9 9 8 3 8 1 8 16 26 19 6 10 11 6 7 12 11 12 14 15 20 23 27 33 35 32 33 34 33 30 29 26 24 20 17 15 14 14 13
13 16 7 7 3 5 6 2 5 5 6 16 27 24 17 10 14 9 8 11 12 10 13 12 13 17 23 26 30 32 34 35 34 33 33 31 28 25 21 18 18 16 13 12
11 8 8 6 12 16 7 7 7 4 10 11 17 12 6 2 5 2 7 8 8 9 11 12 12 18 23 25 29 32 34 34 35 34 32 30 27 26 23 21 18 15 13 13
10 3 10 23 11 7 12 19 21 10 16 9 14 27 6 4 5 3 7 7 9 5 10 12 13 17 21 25 26 29 32 34 36 34 32 30 27 26 22 19 17 16 16 14
7 5 7 13 10 6 8 15 16 20 13 24 17 26 9 22 17 13 10 10 9 10 12 11 13 14 15 23 25 28 30 34 33 32 31 28 27 27 24 21 19 16 15 12
4 5 13 20 22 6 13 18 18 20 16 23 25 28 33 28 23 29 26 20 15 14 16 15 13 14 12 22 25 27 29 32 32 32 31 29 29 27 24 20 17 15 12 10
4 10 19 23 28 30 25 20 13 21 23 20 27 23 24 31 35 32 27 23 19 21 17 14 15 14 14 18 24 26 28 32 33 32 31 30 27 26 24 22 17 13 12 11
9 7 14 20 25 28 32 29 27 32 27 30 30 30 34 35 37 35 33 33 21 27 19 17 17 16 12 17 25 28 30 33 34 33 31 29 29 29 26 20 16 13 12 10
8 7 8 17 23 26 21 33 36 36 38 30 29 38 36 36 36 36 27 27 20 24 17 11 13 12 14 21 27 29 32 32 33 31 29 28 29 27 21 18 15 13 12 11
14 17 13 14 15 20 25 26 32 39 36 36 29 30 34 34 33 21 22 24 22 21 19 13 9 8 16 20 23 26 31 33 32 30 28 30 28 26 21 18 15 13 12 10
25 21 13 11 16 22 7 20 24 28 35 32 30 36 36 32 21 24 31 26 19 22 18 13 9 9 16 22 26 27 26 28 29 28 27 25 26 24 21 18 14 11 8 8
29 24 18 16 16 21 18 27 25 26 18 19 28 28 30 24 11 19 28 9 11 12 8 7 8 12 17 20 29 31 31 30 28 29 30 30 26 23 18 16 13 9 8 8
9 14 23 21 19 15 16 16 6 22 25 29 27 26 28 20 15 22 14 6 6 4 6 9 12 10 19 28 30 25 28 29 32 31 32 31 29 26 20 17 13 11 9 7
28 13 13 13 20 27 16 18 30 31 26 23 20 18 16 17 17 15 18 17 8 9 6 9 7 9 19 26 28 24 25 30 30 34 33 27 27 24 21 18 14 11 8 6
16 13 7 11 8 11 11 10 16 16 13 14 14 17 19 17 16 13 8 10 7 9 6 9 8 12 19 26 28 23 27 33 33 31 30 29 25 21 18 16 12 9 8 6
9 6 4 12 11 18 21 19 13 13 15 16 16 18 17 19 19 18 13 12 5 7 8 10 10 11 13 25 26 27 33 35 35 30 28 27 25 19 17 13 11 10 9 6
12 15 19 26 30 24 23 26 23 28 21 18 15 16 19 19 22 21 22 20 15 8 8 15 13 12 15 26 28 31 35 39 33 31 27 24 21 21 18 13 12 10 7 4
14 20 15 19 25 20 21 20 26 26 27 23 22 24 24 21 21 22 20 20 17 10 10 12 14 15 23 29 27 32 36 39 35 29 26 24 23 21 19 18 13 9 8 5
Wind_Direction
191 229 241 254 246 250 274 283 276 272 272 219 246 260 269 275 277 273 275 273 264 252 225 215 211 203 198 197 197 197 194 193 189 192 193 198 201 200 204 208 216 229 248 285
216 239 254 277 285 270 264 265 267 273 287 213 271 270 268 268 268 274 274 270 272 262 188 207 198 195 196 195 197 197 198 195 194 196 197 200 199 205 206 201 215 224 247 268
241 254 112 266 261 253 247 250 260 272 296 231 273 275 259 249 257 261 268 264 265 251 211 197 192 195 195 200 197 198 197 196 197 196 191 190 190 201 207 215 219 227 244 260
253 264 260 254 255 253 261 261 253 268 280 274 82 287 280 286 264 246 268 271 262 215 198 194 191 193 198 200 198 198 199 198 198 195 194 196 203 206 208 197 202 227 253 259
238 229 222 234 244 237 239 348 249 256 257 279 261 270 277 171 263 232 248 266 269 181 195 190 187 193 198 197 197 197 198 199 198 197 198 199 204 206 200 207 225 244 252 259
257 92 240 234 112 238 124 219 221 229 267 257 260 243 283 217 214 235 251 243 266 186 184 191 187 189 195 194 196 195 196 198 198 199 202 202 202 197 199 208 220 231 240 255
227 228 195 188 208 168 204 213 271 256 225 264 280 260 255 271 246 254 263 268 186 173 180 181 184 186 190 192 193 197 195 198 199 199 199 201 201 201 207 211 220 230 247 259
249 245 192 197 220 251 198 214 222 267 266 282 112 263 265 234 232 246 252 224 197 190 187 187 188 190 192 192 194 201 201 199 197 198 200 200 200 202 206 210 215 224 236 249
222 249 126 179 183 188 167 201 254 273 237 280 267 267 262 163 202 230 226 225 227 206 196 196 194 195 196 193 198 201 204 202 197 196 196 198 198 199 200 202 210 220 232 243
257 259 201 125 189 222 237 92 189 201 259 259 278 278 277 243 229 212 233 238 250 216 213 213 204 198 198 198 201 202 204 203 200 196 196 195 193 196 198 197 208 216 227 240
236 231 234 140 201 217 188 223 220 293 239 251 270 268 54 5 151 270 224 243 243 217 211 213 207 201 202 200 199 202 202 201 199 197 194 191 190 191 195 200 205 216 226 236
216 266 232 235 245 256 255 232 218 219 229 235 254 271 146 142 108 189 242 218 263 247 224 221 203 200 201 202 201 202 201 202 200 195 192 188 185 185 193 198 203 213 226 238
178 208 237 259 244 169 211 228 240 237 249 245 243 255 235 274 284 278 249 230 217 218 229 221 206 202 205 202 201 201 200 203 196 191 189 183 185 185 191 196 202 212 225 233
335 190 226 238 245 262 217 227 224 227 234 246 244 262 280 282 280 275 272 267 251 238 234 235 214 216 206 203 200 200 200 197 190 188 187 184 186 185 189 193 201 213 223 231
305 251 251 254 265 273 275 267 227 230 240 246 263 263 266 277 273 273 278 276 283 275 263 239 233 228 210 199 200 199 197 192 187 186 186 186 183 181 185 193 199 206 219 236
217 252 244 246 250 261 266 264 267 264 262 260 255 261 261 259 269 274 270 276 276 274 272 262 255 228 206 201 198 192 192 188 183 184 186 181 176 181 189 189 191 200 218 233
191 207 212 243 238 240 248 242 244 248 251 251 251 248 259 264 261 259 276 275 273 274 270 256 250 230 209 204 193 190 186 179 180 182 180 174 177 182 183 185 189 199 213 226
220 217 231 256 256 230 237 242 231 242 248 255 252 254 254 257 270 290 273 267 272 270 271 266 254 231 202 199 186 177 174 174 176 178 171 175 175 178 180 185 192 201 211 224
224 230 239 237 232 251 291 225 221 226 238 242 254 255 258 268 273 270 262 262 253 263 264 261 254 221 175 173 168 165 167 169 173 175 169 171 177 173 176 185 192 198 207 233
228 225 230 234 241 242 234 226 240 243 246 229 241 251 260 266 239 254 264 260 237 246 237 235 148 150 157 163 163 160 165 171 181 178 168 173 176 181 181 184 184 193 215 242
212 224 229 234 248 251 246 246 232 244 254 238 242 253 264 264 249 261 274 227 230 229 171 153 160 162 167 162 162 168 168 180 175 165 165 170 175 175 177 180 178 193 210 230
234 220 221 236 243 250 225 241 236 247 258 264 269 258 259 266 267 250 259 261 218 214 178 167 155 155 158 162 166 175 180 170 164 156 158 164 170 169 176 176 180 186 196 221
261 282 306 288 288 337 13 338 335 351 358 336 348 358 351 335 320 307 284 276 222 204 168 169 165 158 167 174 178 174 173 158 156 153 150 161 166 166 171 170 168 174 191 198
279 331 287 322 342 322 309 313 334 10 359 339 328 323 327 322 319 313 313 292 240 184 185 176 168 175 178 180 182 176 161 158 154 149 152 160 157 158 167 163 170 180 189 187
284 305 293 289 288 290 297 299 301 301 298 294 290 294 299 296 294 300 298 289 277 226 175 179 190 190 187 179 179 167 163 160 156 150 153 154 155 158 159 164 174 175 182 200
272 278 274 280 296 304 301 308 306 305 299 298 295 295 286 276 273 274 274 275 275 239 186 190 195 187 180 176 167 165 167 163 153 148 152 158 157 158 159 159 158 169 176 181